AAL274 KLAX-KJFK

Flight info

Callsign AAL274
Flight time N/A
Altitude 39000
Route DOTSS2 CLEEE PKE GUP KK45A ROKNE BUM VHP/N0478F410 KI63Q KLYNE Q29 WWSHR JHW Q476 WLKES PUCKY1
Aircraft B772/H-SDE2E3FGHIJ5LORVWXY/LB1D1

Departure

Time 2026-04-26 18:59
Airport Los Angeles International Airport (KLAX)

Arrival

Time N/A
Airport John F. Kennedy International Airport (KJFK)
Time Latitude Longitude Altitude Speed Heading
2026-04-26 18:29 33.94436 -118.41441 99 ft 0 kts 263°
2026-04-26 18:46 33.94438 -118.41427 100 ft 2 kts 252°
2026-04-26 18:46 33.94443 -118.41408 98 ft 2 kts 245°
2026-04-26 18:46 33.94451 -118.41390 100 ft 2 kts 232°
2026-04-26 18:47 33.94462 -118.41376 98 ft 2 kts 217°
2026-04-26 18:47 33.94477 -118.41365 97 ft 2 kts 201°
2026-04-26 18:47 33.94492 -118.41360 98 ft 2 kts 188°
2026-04-26 18:47 33.94509 -118.41358 98 ft 2 kts 178°
2026-04-26 18:48 33.94523 -118.41359 99 ft 1 kts 173°
2026-04-26 18:48 33.94526 -118.41359 98 ft 0 kts 172°
2026-04-26 18:50 33.94513 -118.41357 100 ft 7 kts 173°
2026-04-26 18:51 33.94439 -118.41346 100 ft 14 kts 173°
2026-04-26 18:51 33.94349 -118.41333 100 ft 17 kts 173°
2026-04-26 18:51 33.94224 -118.41314 100 ft 22 kts 173°
2026-04-26 18:51 33.94098 -118.41296 101 ft 17 kts 171°
2026-04-26 18:52 33.93974 -118.41278 101 ft 15 kts 173°
2026-04-26 18:52 33.93853 -118.41260 102 ft 20 kts 173°
2026-04-26 18:52 33.93763 -118.41215 107 ft 15 kts 118°
2026-04-26 18:52 33.93770 -118.41053 106 ft 25 kts 83°
2026-04-26 18:53 33.93789 -118.40882 106 ft 19 kts 83°
2026-04-26 18:53 33.93806 -118.40706 107 ft 23 kts 83°
2026-04-26 18:53 33.93825 -118.40524 106 ft 20 kts 84°
2026-04-26 18:53 33.93843 -118.40345 108 ft 17 kts 82°
2026-04-26 18:54 33.93860 -118.40179 109 ft 21 kts 83°
2026-04-26 18:54 33.93881 -118.39973 109 ft 25 kts 81°
2026-04-26 18:54 33.93900 -118.39776 108 ft 22 kts 84°
2026-04-26 18:54 33.93924 -118.39555 107 ft 28 kts 83°
2026-04-26 18:55 33.93941 -118.39401 109 ft 19 kts 82°
2026-04-26 18:55 33.93955 -118.39256 107 ft 19 kts 84°
2026-04-26 18:55 33.93972 -118.39079 106 ft 17 kts 83°
2026-04-26 18:55 33.93989 -118.38916 106 ft 18 kts 83°
2026-04-26 18:56 33.94007 -118.38741 106 ft 23 kts 84°
2026-04-26 18:56 33.94027 -118.38539 108 ft 17 kts 82°
2026-04-26 18:56 33.94045 -118.38367 108 ft 23 kts 82°
2026-04-26 18:56 33.94065 -118.38174 108 ft 28 kts 83°
2026-04-26 18:57 33.94076 -118.38071 107 ft 11 kts 83°
2026-04-26 18:57 33.94073 -118.38036 108 ft 4 kts 109°
2026-04-26 18:57 33.94072 -118.38035 108 ft 0 kts 109°
2026-04-26 18:57 33.94070 -118.38031 108 ft 3 kts 117°
2026-04-26 18:58 33.94038 -118.38006 109 ft 8 kts 163°
2026-04-26 18:58 33.93984 -118.38045 111 ft 11 kts 256°
2026-04-26 18:58 33.93965 -118.38226 111 ft 46 kts 263°
2026-04-26 18:58 33.93895 -118.38896 108 ft 113 kts 263°
2026-04-26 18:59 33.93772 -118.40053 172 ft 164 kts 263°
2026-04-26 18:59 33.93629 -118.41482 778 ft 177 kts 262°
2026-04-26 18:59 33.93474 -118.42970 1769 ft 175 kts 262°
2026-04-26 18:59 33.93328 -118.44408 2529 ft 171 kts 263°
2026-04-26 19:00 33.93115 -118.45829 2944 ft 180 kts 246°
2026-04-26 19:00 33.92340 -118.47117 3112 ft 199 kts 233°
2026-04-26 19:00 33.91424 -118.48494 3294 ft 221 kts 233°
2026-04-26 19:00 33.90118 -118.49618 3455 ft 250 kts 198°
2026-04-26 19:01 33.88359 -118.49853 3918 ft 259 kts 187°
2026-04-26 19:01 33.86533 -118.49994 4567 ft 265 kts 188°
2026-04-26 19:01 33.84708 -118.50171 5259 ft 267 kts 189°
2026-04-26 19:01 33.82853 -118.50373 6015 ft 268 kts 189°
2026-04-26 19:02 33.80996 -118.50594 6703 ft 270 kts 190°
2026-04-26 19:02 33.79118 -118.50832 7306 ft 274 kts 191°
2026-04-26 19:02 33.77203 -118.51085 7881 ft 279 kts 191°
2026-04-26 19:02 33.75924 -118.51255 8301 ft 280 kts 191°
2026-04-26 19:03 33.73315 -118.51604 9134 ft 284 kts 191°
2026-04-26 19:03 33.71315 -118.51510 9550 ft 299 kts 168°
2026-04-26 19:03 33.69480 -118.50228 10056 ft 315 kts 136°
2026-04-26 19:03 33.68297 -118.47947 10354 ft 335 kts 111°
2026-04-26 19:04 33.67562 -118.45200 10514 ft 356 kts 107°
2026-04-26 19:04 33.66783 -118.42277 10677 ft 379 kts 109°
2026-04-26 19:04 33.65924 -118.39264 11115 ft 392 kts 110°
2026-04-26 19:04 33.65098 -118.36107 11758 ft 401 kts 104°
2026-04-26 19:05 33.64381 -118.29382 13549 ft 411 kts 90°
2026-04-26 19:05 33.64376 -118.25935 14355 ft 416 kts 88°
2026-04-26 19:05 33.64401 -118.22429 15175 ft 421 kts 88°
2026-04-26 19:06 33.64429 -118.18895 16011 ft 426 kts 89°
2026-04-26 19:06 33.64450 -118.15313 16851 ft 431 kts 89°
2026-04-26 19:06 33.64460 -118.11740 17662 ft 436 kts 89°
2026-04-26 19:06 33.64463 -118.08074 18452 ft 442 kts 90°
2026-04-26 19:07 33.64461 -118.04348 19125 ft 449 kts 90°
2026-04-26 19:07 33.64456 -118.00571 19864 ft 455 kts 90°
2026-04-26 19:07 33.64450 -117.96758 20575 ft 460 kts 90°
2026-04-26 19:07 33.64442 -117.92896 21299 ft 466 kts 90°
2026-04-26 19:08 33.64435 -117.88984 22018 ft 471 kts 91°
2026-04-26 19:08 33.64426 -117.85034 22710 ft 476 kts 91°
2026-04-26 19:08 33.64449 -117.81037 23376 ft 482 kts 88°
2026-04-26 19:08 33.64734 -117.77010 23913 ft 488 kts 82°
2026-04-26 19:09 33.65338 -117.72980 24409 ft 493 kts 79°
2026-04-26 19:09 33.66010 -117.68913 24910 ft 498 kts 78°
2026-04-26 19:09 33.66697 -117.64819 25400 ft 503 kts 78°
2026-04-26 19:09 33.67387 -117.60675 25870 ft 508 kts 79°
2026-04-26 19:10 33.68065 -117.56540 26311 ft 513 kts 79°
2026-04-26 19:10 33.68746 -117.52312 26744 ft 518 kts 79°
2026-04-26 19:10 33.69425 -117.48051 27196 ft 522 kts 79°
2026-04-26 19:10 33.70104 -117.43751 27615 ft 526 kts 80°
2026-04-26 19:11 33.70785 -117.39404 27996 ft 531 kts 80°
2026-04-26 19:11 33.71468 -117.35021 28383 ft 535 kts 80°
2026-04-26 19:11 33.72156 -117.30610 28772 ft 539 kts 80°
2026-04-26 19:11 33.72848 -117.26171 29152 ft 543 kts 80°
2026-04-26 19:12 33.73545 -117.21691 29536 ft 546 kts 80°
2026-04-26 19:12 33.74243 -117.17195 29927 ft 549 kts 80°
2026-04-26 19:12 33.74937 -117.12720 30240 ft 552 kts 80°
2026-04-26 19:12 33.75640 -117.08167 30494 ft 555 kts 80°
2026-04-26 19:13 33.76346 -117.03591 30734 ft 558 kts 81°
2026-04-26 19:13 33.77055 -116.98977 30984 ft 560 kts 81°
2026-04-26 19:13 33.77762 -116.94368 31233 ft 562 kts 81°
2026-04-26 19:13 33.78471 -116.89734 31475 ft 564 kts 81°
2026-04-26 19:14 33.79179 -116.85097 31752 ft 565 kts 81°
2026-04-26 19:14 33.79883 -116.80464 32071 ft 564 kts 81°
2026-04-26 19:14 33.80590 -116.75810 32347 ft 564 kts 81°
2026-04-26 19:15 33.81996 -116.66512 32991 ft 565 kts 82°
2026-04-26 19:15 33.82696 -116.61864 33223 ft 564 kts 81°
2026-04-26 19:15 33.83392 -116.57223 33544 ft 565 kts 82°
2026-04-26 19:15 33.84090 -116.52558 33699 ft 569 kts 82°
2026-04-26 19:16 33.84790 -116.47866 33895 ft 571 kts 82°
2026-04-26 19:16 33.85482 -116.43216 34139 ft 572 kts 82°
2026-04-26 19:16 33.86181 -116.38510 34402 ft 572 kts 82°
2026-04-26 19:16 33.86880 -116.33798 34684 ft 572 kts 82°
2026-04-26 19:17 33.87577 -116.29082 34973 ft 572 kts 82°
2026-04-26 19:17 33.88271 -116.24369 35267 ft 572 kts 82°
2026-04-26 19:17 33.88963 -116.19660 35579 ft 571 kts 82°
2026-04-26 19:17 33.89652 -116.14960 35927 ft 570 kts 82°
2026-04-26 19:18 33.90339 -116.10256 36227 ft 569 kts 82°
2026-04-26 19:18 33.91021 -116.05578 36567 ft 568 kts 82°
2026-04-26 19:18 33.91702 -116.00887 36721 ft 570 kts 82°
2026-04-26 19:18 33.92384 -115.96173 36923 ft 572 kts 82°
2026-04-26 19:19 33.93066 -115.91459 37195 ft 571 kts 82°
2026-04-26 19:19 33.93744 -115.86758 37518 ft 569 kts 82°
2026-04-26 19:19 33.94420 -115.82055 37800 ft 569 kts 82°
2026-04-26 19:19 33.95095 -115.77351 38083 ft 569 kts 82°
2026-04-26 19:20 33.95764 -115.72660 38345 ft 569 kts 82°
2026-04-26 19:20 33.95983 -115.71126 38432 ft 569 kts 82°